Regional Weather Roundup
Issued by NWS

Home | Current Version | Previous Version | Graphics & Text | Print | Product List | Glossary On
Versions: 1 2 3 4 5 6 7 8 9 10 11 12 13 14 15 16 17 18 19 20 21 22 23 24 25 26 27 28 29 30 31 32 33 34 35 36 37 38 39 40 41 42 43 44 45 46 47 48 49 50
000
ASUS43 KDMX 280008
RWRIA

WEATHER ROUNDUP FOR IOWA
NATIONAL WEATHER SERVICE DES MOINES IA
700 PM CDT WED JUL 27 2016

NOTE: "FAIR" INDICATES FEW OR NO CLOUDS BELOW 12,000 FEET WITH NO
SIGNIFICANT WEATHER AND/OR OBSTRUCTIONS TO VISIBILITY.

* - THESE STATIONS ARE NOT NWS STATIONS...THUS NOT UNDER NWS
QUALITY CONTROL.  THEY ALSO DO NOT REPORT WEATHER SUCH
AS PRECIPITATION OR FOG.

IAZ001>003-012>014-020>022-031>034-043>046-280100-
   NORTHWEST IOWA

CITY           SKY/WX    TMP DP  RH WIND       PRES   REMARKS
CARROLL *      SUNNY     81  68  65 CALM      29.93R HX  83
CHEROKEE *     MOSUNNY   83  70  64 NW6       29.94S HX  87
DENISON *      SUNNY     81  70  69 NW5       29.92S HX  84
LE MARS *      SUNNY     84  70  61 N9        29.95S HX  88
SHELDON *      SUNNY     81  68  65 N9G15     29.95S HX  83
SIOUX CITY     SUNNY     86  66  51 NW8       29.93F HX  88
6HR MIN TEMP:  84; 6HR MAX TEMP:  90;

SPENCER        PTSUNNY   81  67  62 N10       29.95S HX  83
6HR MIN TEMP:  81; 6HR MAX TEMP:  86; 6HR PCP: TRACE;

STORM LAKE *   SUNNY     82  70  65 NW8       29.95S HX  86
$$

IAZ055>058-069>071-079>083-090>094-280100-
   SOUTHWEST IOWA

CITY           SKY/WX    TMP DP  RH WIND       PRES   REMARKS
ATLANTIC *     SUNNY     81  70  69 CALM      29.92S HX  84
CLARINDA *       N/A     82  75  78 MISG      29.93S HX  89
COUNCIL BLFS * SUNNY     82  70  65 NW7       29.93F HX  86
CRESTON *      MOSUNNY   81  70  69 CALM      29.95S HX  84
HARLAN  *      SUNNY     81  70  69 NW6       29.97R HX  84
LAMONI         MOSUNNY   83  71  67 CALM      29.92F HX  87
6HR MIN TEMP:  82; 6HR MAX TEMP:  85;

RED OAK *      SUNNY     82  72  69 N3        29.92S HX  87
SHENANDOAH *   SUNNY     82  75  78 N5        29.91F HX  89
$$

IAZ047>049-059>061-072>074-084-280100-
   CENTRAL IOWA

CITY           SKY/WX    TMP DP  RH WIND       PRES   REMARKS
AMES           MOSUNNY   81  71  71 SW3       29.91F HX  85
6HR MIN TEMP:  77; 6HR MAX TEMP:  83;

ANKENY *         N/A    N/A N/A N/A MISG        N/A
BOONE *        SUNNY     81  70  69 W7        29.92S HX  84
CHARITON *       N/A    N/A N/A N/A MISG        N/A
DES MOINES     PTSUNNY   84  67  56 W3        29.90F HX  86
6HR MIN TEMP:  82; 6HR MAX TEMP:  86;

GRINNELL*      CLOUDY    80  66  61 CALM      29.92F HX  82
KNOXVILLE *    CLOUDY    82  68  61 CALM      29.90F HX  85
MARSHALLTOWN   MOSUNNY   80  68  66 CALM      29.91F HX  83
6HR MIN TEMP:  77; 6HR MAX TEMP:  81;

NEWTON *       PTSUNNY   81  70  69 CALM      29.90F HX  84
PELLA *        MOSUNNY   82  69  63 CALM      29.91F HX  86
PERRY *        PTSUNNY   82  72  70 CALM      29.91F HX  87
$$

IAZ004>006-015-016-023>025-035-036-280100-
   NORTH CENTRAL IOWA

CITY           SKY/WX    TMP DP  RH WIND       PRES   REMARKS
ALGONA *       CLOUDY    77  72  83 CALM      29.93S
ESTHERVILLE    SUNNY     79  67  66 N13       29.95R HX  81
6HR MIN TEMP:  79; 6HR MAX TEMP:  83;

FORT DODGE *   SUNNY     81  70  69 SW6       29.93F HX  84
MASON CITY     CLOUDY    78  69  73 S5        29.95S HX  80
6HR MIN TEMP:  78; 6HR MAX TEMP:  82;

FOREST CITY *  PTSUNNY   79  70  73 W7        29.93R HX  81
IOWA FALLS *     N/A     82  69  64 W6        29.94S HX  84
$$

IAZ007>011-017>019-026>030-037>042-050>054-066-280100-
   NORTHEAST IOWA

CITY           SKY/WX    TMP DP  RH WIND       PRES   REMARKS
CEDAR RAPIDS   MOSUNNY   80  74  81 W6        29.91F HX  85
6HR MIN TEMP:  79; 6HR MAX TEMP:  85;

CHARLES CITY * MOSUNNY   77  70  78 CALM      29.95S
CLINTON *      MOSUNNY   81  73  76 CALM      29.91F HX  86
DECORAH *      CLOUDY    77  66  69 CALM      29.93F
DUBUQUE        CLOUDY    81  68  64 CALM      29.94F HX  84
6HR MIN TEMP:  80; 6HR MAX TEMP:  83;

MONTICELLO *   PTSUNNY   81  70  69 CALM      29.92S HX  84
OELWEIN *      MOSUNNY   79  68  69 W5        29.95R HX  81
WATERLOO       MOSUNNY   80  66  62 SW6       29.91S HX  82
6HR MIN TEMP:  80; 6HR MAX TEMP:  82;

$$

IAZ064-065-067-068-078-280100-
   EAST CENTRAL IOWA

CITY           SKY/WX    TMP DP  RH WIND       PRES   REMARKS
DAVENPORT      MOSUNNY   82  69  64 SW5       29.91F HX  85
6HR MIN TEMP:  82; 6HR MAX TEMP:  85;

IOWA CITY      PTSUNNY   82  69  64 W3        29.91F HX  85
6HR MIN TEMP:  81; 6HR MAX TEMP:  86;

MT. PLEASANT * MOSUNNY   86  70  58 NW3       29.90F HX  90
MUSCATINE *    CLOUDY    81  72  74 CALM      29.89F HX  84
QUAD CITIES    MOSUNNY   85  69  58 SW5       29.90S HX  89
6HR MIN TEMP:  84; 6HR MAX TEMP:  88;

$$

IAZ062-063-075>077-085>089-095>099-280100-
   SOUTHEAST IOWA

CITY           SKY/WX    TMP DP  RH WIND       PRES   REMARKS
BURLINGTON     SUNNY     84  74  71 NW3       29.90S HX  91
6HR MIN TEMP:  83; 6HR MAX TEMP:  87;

FAIRFIELD *    MOSUNNY   84  64  51 CALM      29.91F HX  86
KEOKUK *       MOSUNNY   86  72  62 N3        29.89S HX  92
OTTUMWA        CLOUDY    81  70  69 CALM      29.89F HX  84
6HR MIN TEMP:  81; 6HR MAX TEMP:  85;

WASHINGTON *   MOSUNNY   81  72  74 W3        29.92F HX  84
$$

ABBREVIATIONS USED IN REMARKS
   TC - TEMPERATURES IN CELSIUS
  WCI - WIND CHILL INDEX
   HX - HEAT INDEX
  VSB - VISIBILITY
$$




USA.gov is the U.S. government's official web portal to all federal, state and local government web resources and services.